Pocatello, ID

1:20 PM MST on December 06, 2016 (GMT -0700)
Pocatello Regional

Weather History for KPIH - July, 2015

Change the Weather History Date:

Friday, July 24, 2015

  Actual Average Record
Temperature  
Mean Temperature 70 °F 71 °F  
Max Temperature 84 °F 90 °F 100 °F (2003)
Min Temperature 55 °F 53 °F 44 °F (1970)
Degree Days  
Heating Degree Days 0 0  
Month to date heating degree days 2 17  
Since 1 June heating degree days 30 148  
Since 1 July heating degree days 2 17  
Cooling Degree Days 5 6  
Month to date cooling degree days 145 124  
Year to date cooling degree days 284 175  
Since 1 June cooling degree days 280 170  
Growing Degree Days 22 (Base 50)    
Moisture  
Dew Point 55 °F    
Average Humidity 66    
Maximum Humidity 100    
Minimum Humidity 31    
Precipitation  
Precipitation 0.31 in 0.02 in 0.36 in (1982)
Month to date precipitation 1.19 0.49  
Year to date precipitation 6.10 7.31  
Snow  
Snow 0.00 in - - ()
Month to date snowfall 0.0  
Since 1 June snowfall 0.0  
Since 1 July snowfall 0.0  
Snow Depth 0.00 in    
Sea Level Pressure  
Sea Level Pressure 30.04 in    
Wind  
Wind Speed 6 mph (South)    
Max Wind Speed 25 mph    
Max Gust Speed 31 mph    
Visibility 10 miles    
Events Rain , Thunderstorm    
T = Trace of Precipitation, MM = Missing Value Source: NWS Daily Summary

Daily Weather History Graph

Daily Weather History Graph

Search for Another Location

Airport or City:

Trip Planner

Search our weather history database for the weather conditions in past years. The results will help you decide how hot, cold, wet, or windy it might be!

Date:

Astronomy

Jul. 24, 2015 Rise Set
Actual Time 6:13 AM MDT 8:59 PM MDT
Civil Twilight 5:40 AM MDT 9:32 PM MDT
Nautical Twilight 4:58 AM MDT 10:14 PM MDT
Astronomical Twilight 4:09 AM MDT 11:02 PM MDT
Moon 2:37 PM MDT (7/24) 12:49 AM MDT (7/24)
Length of Visible Light 15h 52m
Length of Day
14h 46m
First Quarter, 56% of the Moon is Illuminated
Jul 24
First Quarter
Jul 31
Full
Aug 6
Last Quarter
Aug 14
New
Aug 22
First Quarter

Hourly Weather History & Observations

Time (MDT) Temp. Dew Point Humidity Pressure Visibility Wind Dir Wind Speed Gust Speed Precip Events Conditions
12:00 AM 61.0 °F 55.9 °F 83% 30.14 in 10.0 mi SW 20.7 mph 24.2 mph N/A Thunderstorm Mostly Cloudy
12:15 AM 61.0 °F 55.9 °F 83% 30.09 in 10.0 mi SE 10.4 mph - 0.01 in Rain Light Rain
12:46 AM 61.0 °F 57.0 °F 87% 30.08 in 10.0 mi East 5.8 mph - 0.01 in Thunderstorm Mostly Cloudy
12:53 AM 62.1 °F 57.0 °F 84% 29.94 in 10.0 mi East 4.6 mph - 0.01 in Thunderstorm Mostly Cloudy
1:01 AM 62.1 °F 57.0 °F 84% 30.07 in 10.0 mi East 6.9 mph - N/A   Scattered Clouds
1:53 AM 61.0 °F 55.9 °F 83% 29.95 in 10.0 mi ESE 5.8 mph - 0.00 in   Partly Cloudy
2:53 AM 57.9 °F 57.0 °F 97% 29.96 in 10.0 mi West 6.9 mph - N/A   Mostly Cloudy
3:53 AM 59.0 °F 57.0 °F 93% 30.00 in 10.0 mi SW 5.8 mph - 0.00 in   Mostly Cloudy
4:53 AM 61.0 °F 59.0 °F 93% 30.08 in 10.0 mi SSW 12.7 mph - 0.05 in Rain Light Rain
5:53 AM 60.1 °F 55.9 °F 86% 30.01 in 10.0 mi East 8.1 mph - 0.04 in   Scattered Clouds
6:53 AM 59.0 °F 55.9 °F 90% 30.06 in 10.0 mi West 10.4 mph - N/A   Scattered Clouds
7:53 AM 61.0 °F 57.9 °F 90% 30.06 in 10.0 mi Calm Calm - N/A   Scattered Clouds
8:53 AM 63.0 °F 57.9 °F 84% 30.08 in 10.0 mi Calm Calm - N/A   Scattered Clouds
9:53 AM 66.0 °F 57.9 °F 75% 30.08 in 10.0 mi East 3.5 mph - N/A   Scattered Clouds
10:53 AM 71.1 °F 57.0 °F 61% 30.08 in 10.0 mi Calm Calm - N/A   Mostly Cloudy
11:53 AM 75.9 °F 55.9 °F 50% 30.05 in 10.0 mi Variable 4.6 mph - N/A   Mostly Cloudy
12:53 PM 79.0 °F 48.0 °F 34% 30.02 in 10.0 mi Variable 3.5 mph - N/A   Scattered Clouds
1:53 PM 81.0 °F 51.1 °F 35% 30.01 in 10.0 mi West 10.4 mph - N/A   Scattered Clouds
2:53 PM 82.0 °F 48.9 °F 31% 29.99 in 10.0 mi WNW 11.5 mph - N/A   Scattered Clouds
3:53 PM 79.0 °F 48.9 °F 35% 30.00 in 10.0 mi North 3.5 mph - N/A Thunderstorm Thunderstorm
4:53 PM 71.1 °F 53.1 °F 53% 30.02 in 10.0 mi Calm Calm - 0.06 in Rain Light Rain
5:48 PM 66.2 °F 60.8 °F 83% 30.13 in 10.0 mi Calm Calm - 0.08 in Rain , Thunderstorm Light Thunderstorms and Rain
5:53 PM 69.1 °F 57.0 °F 65% 30.02 in 10.0 mi Calm Calm - 0.09 in Rain , Thunderstorm Light Thunderstorms and Rain
6:53 PM 68.0 °F 55.9 °F 65% 30.04 in 10.0 mi West 9.2 mph - 0.00 in   Mostly Cloudy
7:53 PM 68.0 °F 57.0 °F 68% 30.02 in 10.0 mi SW 6.9 mph - 0.00 in Rain Light Rain
8:53 PM 64.9 °F 55.9 °F 73% 30.06 in 10.0 mi SSW 15.0 mph 18.4 mph 0.02 in   Mostly Cloudy
9:53 PM 62.1 °F 55.0 °F 78% 30.05 in 10.0 mi South 12.7 mph - 0.05 in Rain Light Rain
10:53 PM 62.1 °F 53.1 °F 72% 30.01 in 10.0 mi SE 8.1 mph - 0.00 in   Partly Cloudy
11:53 PM 61.0 °F 52.0 °F 72% 30.00 in 10.0 mi East 4.6 mph - N/A   Clear